When you browse on this site, cookies collect data to enhance your experience and personalize the content and advertising you see.
Visit our Privacy Policy to learn more. By continuing to use the site, you agree to this use of cookies and data.
  • In Hungary
  • List of Countries
  • For 7 days
  • Water Temperature
  • Weather Map
  • News
  • Weather Widgets
  • user-avatar
    Login

    Hourly Weather Khlibychyn

    Today, 6 April, Monday

    Time Temperature Precipitation Wind Pressure Humidity
    00:00 +3°C° 0 mm 2 mps 750 mmHg 91%
    01:00 +4°C° 0 mm 1 mps 750 mmHg 92%
    02:00 +2°C° 0 mm 1 mps 750 mmHg 69%
    03:00 +4°C° 0 mm 1 mps 749 mmHg 76%
    04:00 +4°C° 0 mm 1 mps 749 mmHg 76%
    05:00 +2°C° 0 mm 2 mps 750 mmHg 82%
    06:00 +1°C° 0 mm 2 mps 750 mmHg 86%
    07:00 +1°C° 0 mm 2 mps 750 mmHg 87%
    08:00 +3°C° 0 mm 2 mps 751 mmHg 88%
    09:00 +4°C° 0 mm 3 mps 751 mmHg 80%
    10:00 +8°C° 0 mm 3 mps 751 mmHg 75%
    11:00 +8°C° 0 mm 4 mps 751 mmHg 66%
    12:00 +10°C° 0 mm 4 mps 752 mmHg 64%
    13:00 +11°C° 0 mm 4 mps 751 mmHg 65%
    14:00 +12°C° 0 mm 4 mps 751 mmHg 65%
    15:00 +13°C° 0 mm 4 mps 751 mmHg 65%
    16:00 +13°C° 0 mm 4 mps 751 mmHg 64%
    17:00 +13°C° 0 mm 3 mps 751 mmHg 65%
    18:00 +12°C° 0 mm 3 mps 751 mmHg 70%
    19:00 +10°C° 0 mm 2 mps 750 mmHg 80%
    20:00 +9°C° 0 mm 2 mps 750 mmHg 82%
    21:00 +8°C° 0 mm 2 mps 750 mmHg 84%
    22:00 +7°C° 0 mm 2 mps 751 mmHg 85%
    23:00 +6°C° 0 mm 2 mps 751 mmHg 86%

    Tomorrow, 7 April, Tuesday

    Time Temperature Precipitation Wind Pressure Humidity
    00:00 +7°C° 0 mm 1 mps 751 mmHg 86%
    01:00 +6°C° 0 mm 1 mps 750 mmHg 87%
    02:00 +6°C° 0 mm 1 mps 750 mmHg 89%
    03:00 +4°C° 0 mm 0 mps 750 mmHg 90%
    04:00 +4°C° 0 mm 0 mps 750 mmHg 92%
    05:00 +4°C° 0 mm 0 mps 751 mmHg 92%
    06:00 +4°C° 0 mm 0 mps 751 mmHg 93%
    07:00 +4°C° 0 mm 0 mps 751 mmHg 93%
    08:00 +5°C° 0 mm 0 mps 751 mmHg 93%
    09:00 +7°C° 0 mm 0 mps 751 mmHg 87%
    10:00 +10°C° 0 mm 1 mps 752 mmHg 77%
    11:00 +12°C° 0 mm 1 mps 752 mmHg 77%
    12:00 +13°C° 0 mm 1 mps 752 mmHg 69%
    13:00 +14°C° 0 mm 1 mps 752 mmHg 68%
    14:00 +13°C° 0 mm 0 mps 752 mmHg 69%
    15:00 +14°C° 0 mm 0 mps 752 mmHg 68%
    16:00 +15°C° 0 mm 1 mps 751 mmHg 65%
    17:00 +14°C° 0 mm 1 mps 751 mmHg 63%
    18:00 +14°C° 0 mm 1 mps 750 mmHg 72%
    19:00 +13°C° 0 mm 1 mps 750 mmHg 76%
    20:00 +12°C° 0 mm 1 mps 750 mmHg 72%
    21:00 +11°C° 0 mm 1 mps 750 mmHg 77%
    22:00 +10°C° 0 mm 1 mps 750 mmHg 83%
    23:00 +10°C° 0 mm 1 mps 750 mmHg 84%

    Day after tomorrow, 8 April, Wednesday

    Time Temperature Precipitation Wind Pressure Humidity
    00:00 +9°C° 0 mm 1 mps 750 mmHg 86%
    01:00 +7°C° 0 mm 0 mps 749 mmHg 88%
    02:00 +7°C° 0 mm 0 mps 749 mmHg 87%
    03:00 +6°C° 0 mm 0 mps 749 mmHg 88%
    04:00 +6°C° 0 mm 0 mps 748 mmHg 87%
    05:00 +7°C° 0 mm 1 mps 749 mmHg 85%
    06:00 +6°C° 0 mm 1 mps 748 mmHg 88%
    07:00 +6°C° 0 mm 1 mps 748 mmHg 89%
    08:00 +7°C° 0 mm 1 mps 748 mmHg 90%
    09:00 +10°C° 0 mm 1 mps 748 mmHg 84%
    10:00 +12°C° 0 mm 1 mps 748 mmHg 81%
    11:00 +13°C° 0 mm 1 mps 748 mmHg 78%
    12:00 +13°C° 0 mm 0 mps 748 mmHg 66%
    13:00 +14°C° 0 mm 0 mps 747 mmHg 66%
    14:00 +14°C° 0 mm 0 mps 747 mmHg 66%
    15:00 +15°C° 0 mm 1 mps 747 mmHg 65%
    16:00 +16°C° 0 mm 1 mps 746 mmHg 65%
    17:00 +15°C° 0 mm 1 mps 746 mmHg 68%
    18:00 +14°C° 0 mm 0 mps 746 mmHg 72%
    19:00 +13°C° 0 mm 0 mps 745 mmHg 70%
    20:00 +13°C° 0 mm 0 mps 745 mmHg 68%
    21:00 +12°C° 0 mm 0 mps 745 mmHg 71%
    22:00 +12°C° 0 mm 1 mps 744 mmHg 76%
    23:00 +11°C° 0 mm 1 mps 744 mmHg 77%

    9 April, Thursday

    Time Temperature Precipitation Wind Pressure Humidity
    00:00 +10°C° 0 mm 1 mps 744 mmHg 77%
    01:00 +10°C° 0 mm 1 mps 744 mmHg 80%
    02:00 +8°C° 0 mm 0 mps 744 mmHg 81%
    03:00 +8°C° 0 mm 0 mps 743 mmHg 81%
    04:00 +7°C° 0 mm 0 mps 743 mmHg 81%
    05:00 +7°C° 0 mm 0 mps 743 mmHg 81%
    06:00 +6°C° 0 mm 0 mps 742 mmHg 82%
    07:00 +6°C° 0 mm 0 mps 742 mmHg 83%
    08:00 +7°C° 0 mm 0 mps 742 mmHg 86%
    09:00 +10°C° 0 mm 0 mps 742 mmHg 89%
    10:00 +12°C° 0 mm 0 mps 742 mmHg 87%
    11:00 +15°C° 0 mm 1 mps 742 mmHg 79%
    12:00 +16°C° 0 mm 1 mps 742 mmHg 75%
    13:00 +16°C° 0 mm 1 mps 741 mmHg 74%
    14:00 +18°C° 0 mm 1 mps 741 mmHg 72%
    15:00 +16°C° 0 mm 0 mps 741 mmHg 72%
    16:00 +18°C° 0 mm 1 mps 740 mmHg 73%
    17:00 +16°C° 0 mm 0 mps 740 mmHg 74%
    18:00 +16°C° 0 mm 1 mps 740 mmHg 78%
    19:00 +15°C° 0 mm 1 mps 739 mmHg 82%
    20:00 +15°C° 0 mm 1 mps 739 mmHg 82%
    21:00 +14°C° 0 mm 1 mps 739 mmHg 87%
    22:00 +13°C° 0 mm 2 mps 739 mmHg 86%
    23:00 +10°C° 0 mm 2 mps 739 mmHg 84%

    10 April, Friday

    Time Temperature Precipitation Wind Pressure Humidity
    00:00 +10°C° 0 mm 2 mps 739 mmHg 82%
    01:00 +9°C° 0 mm 2 mps 738 mmHg 82%
    02:00 +9°C° 0 mm 1 mps 738 mmHg 83%
    03:00 +8°C° 0 mm 1 mps 738 mmHg 85%
    04:00 +7°C° 0 mm 2 mps 738 mmHg 90%
    05:00 +7°C° 0 mm 2 mps 738 mmHg 92%
    06:00 +7°C° 0 mm 2 mps 738 mmHg 92%
    07:00 +7°C° 0 mm 2 mps 738 mmHg 95%
    08:00 +10°C° 0 mm 3 mps 739 mmHg 92%
    09:00 +11°C° 0 mm 6 mps 739 mmHg 90%
    10:00 +12°C° 0 mm 5 mps 739 mmHg 88%
    11:00 +12°C° 0 mm 5 mps 739 mmHg 87%
    12:00 +13°C° 0 mm 5 mps 740 mmHg 86%
    13:00 +13°C° 0 mm 5 mps 740 mmHg 86%
    14:00 +13°C° 0 mm 5 mps 740 mmHg 86%
    15:00 +13°C° 0 mm 5 mps 740 mmHg 84%
    16:00 +13°C° 0 mm 5 mps 739 mmHg 79%
    17:00 +12°C° 0.1 mm 5 mps 740 mmHg 82%
    18:00 +12°C° 0.1 mm 4 mps 740 mmHg 83%
    19:00 +10°C° 0 mm 2 mps 740 mmHg 89%
    20:00 +10°C° 0 mm 2 mps 740 mmHg 90%
    21:00 +10°C° 0 mm 1 mps 741 mmHg 93%
    22:00 +9°C° 0 mm 1 mps 741 mmHg 94%
    23:00 +8°C° 0 mm 2 mps 741 mmHg 95%

    11 April, Saturday

    Time Temperature Precipitation Wind Pressure Humidity
    00:00 +8°C° 0 mm 1 mps 741 mmHg 96%
    01:00 +8°C° 0 mm 1 mps 741 mmHg 94%
    02:00 +7°C° 0 mm 0 mps 741 mmHg 94%
    03:00 +7°C° 0 mm 1 mps 741 mmHg 95%
    04:00 +6°C° 0 mm 0 mps 741 mmHg 95%
    05:00 +7°C° 0 mm 1 mps 741 mmHg 97%
    06:00 +6°C° 0 mm 1 mps 741 mmHg 98%
    07:00 +6°C° 0 mm 2 mps 741 mmHg 99%
    08:00 +8°C° 0 mm 1 mps 741 mmHg 97%
    09:00 +9°C° 0 mm 2 mps 741 mmHg 93%
    10:00 +10°C° 0 mm 2 mps 741 mmHg 90%
    11:00 +12°C° 0 mm 2 mps 741 mmHg 89%
    12:00 +13°C° 0 mm 1 mps 741 mmHg 80%
    13:00 +14°C° 0 mm 1 mps 741 mmHg 75%
    14:00 +14°C° 0 mm 1 mps 741 mmHg 77%
    15:00 +14°C° 0 mm 2 mps 741 mmHg 78%
    16:00 +15°C° 0 mm 1 mps 741 mmHg 77%
    17:00 +14°C° 0 mm 1 mps 740 mmHg 77%
    18:00 +14°C° 0 mm 1 mps 740 mmHg 79%
    19:00 +13°C° 0 mm 1 mps 740 mmHg 88%
    20:00 +13°C° 0 mm 1 mps 741 mmHg 85%
    21:00 +12°C° 0 mm 1 mps 741 mmHg 89%
    22:00 +12°C° 0 mm 1 mps 741 mmHg 92%
    23:00 +12°C° 0 mm 1 mps 741 mmHg 93%
    Show more